Weather History for Princeton, MN

Change the Weather History Date:

Friday, June 7, 2013

  Actual Average Record
Temperature  
Mean Temperature 54 °F -  
Max Temperature 62 °F 71 °F 98 °F (2011)
Min Temperature 46 °F 49 °F 35 °F (1998)
Degree Days  
Heating Degree Days 11    
Growing Degree Days 4 (Base 50)    
Moisture  
Dew Point 48 °F    
Average Humidity 80    
Maximum Humidity 94    
Minimum Humidity 55    
Precipitation  
Precipitation 0.00 in - - ()
Sea Level Pressure  
Sea Level Pressure 30.01 in    
Wind  
Wind Speed 1 mph (NNE)    
Max Wind Speed 6 mph    
Max Gust Speed -    
Visibility 10 miles    
Events      
Averages and records for this station are not official NWS values.
T = Trace of Precipitation, MM = Missing Value Source: NWS Daily Summary

Daily Weather History Graph

Daily Weather History Graph

Search for Another Location

Airport:

Trip Planner

Search our weather history database for the weather conditions in past years. The results will help you decide how hot, cold, wet, or windy it might be!

Date:

Astronomy

Jun. 07, 2013 Rise Set
Actual Time 5:26 AM CDT 9:00 PM CDT
Civil Twilight 4:48 AM CDT 9:38 PM CDT
Nautical Twilight 3:58 AM CDT 10:28 PM CDT
Astronomical Twilight 2:52 AM CDT 11:34 PM CDT
Moon 4:53 AM CDT (6/7) 8:12 PM CDT (6/7)
Length of Visible Light 16h 49m
Length of Day
15h 34m
Waning Crescent, 1% of the Moon is Illuminated
Jun 7
Waning Crescent
Jun 8
New
Jun 16
First Quarter
Jun 23
Full
Jun 29
Last Quarter

Hourly Weather History & Observations

Time (CDT) Temp. Dew Point Humidity Pressure Visibility Wind Dir Wind Speed Gust Speed Precip Events Conditions
12:12 AM 51.8 °F 46.4 °F 82% 30.05 in 10.0 mi Calm Calm - N/A   Overcast
12:31 AM 51.8 °F 46.4 °F 82% 30.05 in 10.0 mi Calm Calm - N/A   Overcast
12:51 AM 51.8 °F 46.4 °F 82% 30.05 in 10.0 mi North 3.5 mph - N/A   Overcast
1:12 AM 51.8 °F 46.4 °F 82% 30.05 in 10.0 mi Calm Calm - N/A   Overcast
1:31 AM 51.8 °F 44.6 °F 76% 30.04 in 10.0 mi Calm Calm - N/A   Overcast
1:51 AM 50.0 °F 44.6 °F 82% 30.04 in 10.0 mi Calm Calm - N/A   Overcast
2:11 AM 50.0 °F 46.4 °F 87% 30.03 in 10.0 mi Calm Calm - N/A   Overcast
2:31 AM 48.2 °F 44.6 °F 87% 30.03 in 10.0 mi Calm Calm - N/A   Overcast
2:51 AM 48.2 °F 44.6 °F 87% 30.03 in 10.0 mi North 3.5 mph - N/A   Overcast
3:12 AM 48.2 °F 44.6 °F 87% 30.03 in 10.0 mi Calm Calm - N/A   Overcast
3:31 AM 48.2 °F 44.6 °F 87% 30.03 in 10.0 mi Calm Calm - N/A   Overcast
3:51 AM 48.2 °F 44.6 °F 87% 30.03 in 7.0 mi Calm Calm - N/A   Overcast
4:11 AM 48.2 °F 44.6 °F 87% 30.03 in 10.0 mi Calm Calm - N/A   Mostly Cloudy
4:31 AM 46.4 °F 44.6 °F 93% 30.03 in 10.0 mi Calm Calm - N/A   Mostly Cloudy
4:51 AM 46.4 °F 44.6 °F 93% 30.03 in 10.0 mi Calm Calm - N/A   Mostly Cloudy
5:11 AM 46.4 °F 44.6 °F 93% 30.03 in 10.0 mi Calm Calm - N/A   Mostly Cloudy
5:31 AM 46.4 °F 44.6 °F 93% 30.03 in 10.0 mi Calm Calm - N/A   Overcast
5:51 AM 46.4 °F 44.6 °F 93% 30.04 in 10.0 mi Calm Calm - N/A   Overcast
6:11 AM 48.2 °F 46.4 °F 93% 30.04 in 10.0 mi Calm Calm - N/A   Overcast
6:31 AM 48.2 °F 46.4 °F 93% 30.04 in 10.0 mi Calm Calm - N/A   Overcast
6:51 AM 48.2 °F 44.6 °F 87% 30.05 in 10.0 mi North 3.5 mph - N/A   Overcast
7:11 AM 48.2 °F 46.4 °F 93% 30.05 in 10.0 mi Calm Calm - N/A   Overcast
7:31 AM 48.2 °F 46.4 °F 93% 30.05 in 10.0 mi Calm Calm - N/A   Scattered Clouds
7:51 AM 50.0 °F 46.4 °F 87% 30.05 in 10.0 mi Calm Calm - N/A   Overcast
8:11 AM 50.0 °F 46.4 °F 87% 30.06 in 10.0 mi Calm Calm - N/A   Overcast
8:31 AM 51.8 °F 46.4 °F 82% 30.06 in 10.0 mi Calm Calm - N/A   Overcast
8:51 AM 51.8 °F 46.4 °F 82% 30.06 in 10.0 mi Calm Calm - N/A   Overcast
9:11 AM 53.6 °F 48.2 °F 82% 30.07 in 10.0 mi Calm Calm - N/A   Overcast
9:31 AM 53.6 °F 48.2 °F 82% 30.06 in 10.0 mi Calm Calm - N/A   Overcast
9:51 AM 55.4 °F 50.0 °F 82% 30.05 in 10.0 mi ENE 4.6 mph - N/A   Overcast
10:11 AM 55.4 °F 48.2 °F 77% 30.05 in 10.0 mi ENE 4.6 mph - N/A   Overcast
10:31 AM 55.4 °F 48.2 °F 77% 30.05 in 10.0 mi Calm Calm - N/A   Overcast
10:51 AM 55.4 °F 48.2 °F 77% 30.05 in 10.0 mi NNE 4.6 mph - N/A   Overcast
11:12 AM 55.4 °F 50.0 °F 82% 30.04 in 10.0 mi North 3.5 mph - N/A   Overcast
11:31 AM 57.2 °F 50.0 °F 77% 30.04 in 10.0 mi North 3.5 mph - N/A   Overcast
11:51 AM 57.2 °F 50.0 °F 77% 30.04 in 10.0 mi NNW 5.8 mph - N/A   Overcast
12:12 PM 57.2 °F 50.0 °F 77% 30.04 in 10.0 mi NE 3.5 mph - N/A   Overcast
12:31 PM 57.2 °F 50.0 °F 77% 30.03 in 10.0 mi NNW 3.5 mph - N/A   Overcast
12:51 PM 59.0 °F 50.0 °F 72% 30.03 in 10.0 mi North 3.5 mph - N/A   Overcast
1:12 PM 57.2 °F 50.0 °F 77% 30.02 in 10.0 mi Calm Calm - N/A   Overcast
1:31 PM 59.0 °F 50.0 °F 72% 30.02 in 10.0 mi Calm Calm - N/A   Overcast
1:51 PM 60.8 °F 50.0 °F 68% 30.01 in 10.0 mi Calm Calm - N/A   Overcast
2:12 PM 60.8 °F 50.0 °F 68% 30.00 in 10.0 mi Calm Calm - N/A   Mostly Cloudy
2:31 PM 60.8 °F 51.8 °F 72% 30.00 in 10.0 mi Calm Calm - N/A   Overcast
2:51 PM 60.8 °F 50.0 °F 68% 30.00 in 10.0 mi Calm Calm - N/A   Overcast
3:12 PM 60.8 °F 50.0 °F 68% 29.99 in 10.0 mi Calm Calm - N/A   Overcast
3:31 PM 60.8 °F 50.0 °F 68% 29.99 in 10.0 mi Calm Calm - N/A   Overcast
3:51 PM 62.6 °F 51.8 °F 68% 29.99 in 10.0 mi Calm Calm - N/A   Overcast
4:12 PM 62.6 °F 48.2 °F 59% 29.98 in 10.0 mi South 3.5 mph - N/A   Overcast
4:31 PM 62.6 °F 50.0 °F 63% 29.97 in 10.0 mi ESE 4.6 mph - N/A   Overcast
4:51 PM 62.6 °F 46.4 °F 55% 29.97 in 10.0 mi Calm Calm - N/A   Overcast
5:10 PM 62.6 °F 48.2 °F 59% 29.97 in 10.0 mi Calm Calm - N/A   Overcast
5:31 PM 62.6 °F 48.2 °F 59% 29.97 in 10.0 mi Calm Calm - N/A   Overcast
5:51 PM 60.8 °F 50.0 °F 68% 29.96 in 10.0 mi Calm Calm - N/A   Overcast
6:11 PM 60.8 °F 50.0 °F 68% 29.96 in 10.0 mi Calm Calm - N/A   Overcast
6:31 PM 60.8 °F 50.0 °F 68% 29.96 in 10.0 mi Calm Calm - N/A   Overcast
6:51 PM 60.8 °F 51.8 °F 72% 29.96 in 10.0 mi Calm Calm - N/A   Overcast
7:11 PM 60.8 °F 51.8 °F 72% 29.95 in 10.0 mi Calm Calm - N/A   Overcast
7:31 PM 60.8 °F 51.8 °F 72% 29.95 in 10.0 mi Calm Calm - N/A   Overcast
7:51 PM 59.0 °F 51.8 °F 77% 29.95 in 10.0 mi Calm Calm - N/A   Overcast
8:11 PM 59.0 °F 51.8 °F 77% 29.95 in 10.0 mi Calm Calm - N/A   Overcast
8:31 PM 57.2 °F 53.6 °F 88% 29.95 in 10.0 mi Calm Calm - N/A   Overcast
8:51 PM 57.2 °F 51.8 °F 82% 29.94 in 10.0 mi Calm Calm - N/A   Overcast
9:11 PM 57.2 °F 53.6 °F 88% 29.94 in 10.0 mi Calm Calm - N/A   Overcast
9:31 PM 55.4 °F 51.8 °F 88% 29.94 in 10.0 mi Calm Calm - N/A   Overcast
9:52 PM 53.6 °F 51.8 °F 94% 29.95 in 10.0 mi Calm Calm - N/A   Mostly Cloudy
10:11 PM 53.6 °F 51.8 °F 94% 29.95 in 10.0 mi Calm Calm - N/A   Mostly Cloudy
10:31 PM 53.6 °F 50.0 °F 88% 29.95 in 10.0 mi Calm Calm - N/A   Scattered Clouds
10:52 PM 51.8 °F 50.0 °F 94% 29.95 in 10.0 mi Calm Calm - N/A   Scattered Clouds
11:11 PM 51.8 °F 50.0 °F 94% 29.94 in 1.8 mi Calm Calm - N/A   Clear
11:31 PM 50.0 °F 48.2 °F 94% 29.94 in 5.0 mi Calm Calm - N/A   Scattered Clouds
11:52 PM 51.8 °F 50.0 °F 94% 29.93 in 7.0 mi Calm Calm - N/A   Overcast